Location: Nowy Sacz
(49.6330°N, 20.7170°E)
Time: 04:16:50
(UTC+01:00)

N. Korean satellite - Visible Passes

Search period start: 10 December 2022 00:00
Search period end: 20 December 2022 00:00
Orbit: 420 x 452 km, 97.3° (Epoch: 09 December)

Date Brightness Start Highest point End Pass type
(mag) Time Alt. Az. Time Alt. Az. Time Alt. Az.
10 Dec 6.2 05:11:49 10° N 05:15:13 80° WNW 05:18:34 10° SSW visible
10 Dec 10.0 17:20:06 10° WSW 17:21:04 11° W 17:22:02 10° WNW visible
11 Dec 8.2 04:32:54 10° NNE 04:35:59 32° E 04:39:01 10° SSE visible
11 Dec 7.7 06:05:49 10° NNW 06:08:18 19° WNW 06:10:45 10° WSW visible
11 Dec 8.7 16:38:33 10° SSW 16:41:34 29° W 16:44:36 10° NNW visible
12 Dec 9.8 03:55:10 10° ENE 03:56:29 12° E 03:57:47 10° ESE visible
12 Dec 6.4 05:26:00 10° N 05:29:19 52° WNW 05:32:32 10° SSW visible
13 Dec 7.3 04:46:47 10° NNE 04:50:03 47° E 04:53:17 10° S visible
13 Dec 8.1 06:20:20 10° NNW 06:22:10 14° WNW 06:24:00 10° W visible
13 Dec 9.3 16:53:01 10° SW 16:55:38 20° W 16:58:16 10° NW visible
14 Dec 9.3 04:08:18 10° NE 04:11:19 16° ESE 04:12:46 10° SE visible
14 Dec 7.8 05:40:04 10° N 05:44:43 22° WSW 05:46:14 10° SW visible
14 Dec 7.1 16:12:47 10° S 16:16:09 60° W 16:19:33 10° NNW visible
15 Dec 8.0 05:00:33 10° NNE 05:05:43 25° S 05:07:13 10° S visible
15 Dec8.706:39:07WSW06:39:07WSW06:34:37NWvisible
15 Dec 9.7 17:07:33 10° SW 17:09:32 15° W 17:11:33 10° NW visible
16 Dec 9.2 04:26:29 14° SE 04:26:29 14° SE 04:27:07 10° SSE visible
16 Dec 8.6 05:54:03 10° N 05:59:52 - SW 05:54:23 12° NNW visible
16 Dec 8.0 16:26:40 10° S 16:29:54 40° W 16:33:09 10° NNW visible
17 Dec 8.8 05:20:29 13° SSW 05:20:29 13° SSW 05:20:52 10° SSW visible
17 Dec 10.1 17:22:43 10° W 17:23:18 10° W 17:23:53 10° WNW visible
18 Dec 9.3 04:41:00 10° SSE 04:41:00 10° SSE 04:41:03 10° SSE visible
18 Dec9.006:14:23SW06:14:23SW06:07:24NNWvisible
18 Dec 8.8 16:40:32 10° SSW 16:43:30 28° W 16:46:29 10° NW visible
19 Dec10.204:01:26SE04:01:26SE03:53:57NNEvisible
19 Dec9.305:34:48SSW05:34:48SSW05:27:16Nvisible
